{"data":{"norad_id":69395,"epoch":"2026-09-20T05:08:53.950848Z","epoch_age_seconds":59465,"freshness":"FRESH","line1":"1 69395U 26124P   26263.21451332  .00000106  00000+0  14480-3 0  9993","line2":"2 69395  89.0011 351.9456 0001841 102.0874 258.0484 13.51026405 14915","mean_motion":13.51026405,"eccentricity":0.0001841,"inclination_deg":89.0011,"raan_deg":351.9456,"arg_perigee_deg":102.0874,"mean_anomaly_deg":258.0484,"bstar":0.0001448,"rev_number":1491,"period_min":106.58562961247,"perigee_km":1067.1136341377,"apogee_km":1069.855480195,"semimajor_km":7446.6215571664,"source":"CELESTRAK","updated_at":"2026-09-20T09:00:24.862320Z"}}